Weather in Pinyug

Russia / Kirov Oblast     60°15′03″N   47°46′55″E
temp.,
°C
wind,
m/s
gust,
m/s
humid.,
%
clouds,
%
prec.,
mm/h
press.,
hPa
HPBL,
m
12 april, mon
mon1200:00−1wsw211920 0.0 1033202
03:00−2wsw27935 0.0 1036127
06:00−1wsw25915 0.0 1037108
09:00+5w24685 0.0 1039417
12:00+8wsw23525 0.0 1039956
15:00+9sw34535 0.0 1039962
18:00+5s22845 0.0 103813
21:00+2s278884 0.0 1038115
13 april, tue
tue1300:00+1s298567 0.0 1037160
03:00+1s21093100 0.0 1036193
06:00+3s31292100 0.0 1035330
09:00+7s41283100 0.0 1032478
12:00+11ssw51078100 0.0 1030662
15:00+13ssw51177100 0.0 1028833
18:00+12ssw41285100 0.0 1027544
21:00+10ssw41493100 0.0 1027468
14 april, wed
wed1400:00+8ssw31193100 0.0 1026311
03:00+6ssw31093100 0.0 1026204
06:00+7ssw3108799 0.0 1025230
09:00+12sw496497 0.0 1024420
12:00+17sw5104975 0.0 10231223
15:00+17sw59525 0.0 10221333
18:00+14ssw4116181 0.0 1021526
21:00+11ssw4147086 0.0 1020409
15 april, thu
thu1500:00+9ssw3137596 0.0 1019324
03:00+8sw4137868 0.0 1019344
06:00+7wsw278677 0.0 1019218
09:00+9n3480100 0.0 1020622
12:00+6nne4684100 0.0 1021474
15:00+4ne3793100 1.4 1022435
18:00+4ne2697100 1.1 1022521
21:00+4ene2695100 3.0 1021488
16 april, fri
fri1600:00+3ene2597100 0.4 1021535
03:00+3nne2498100 0.8 1020329
06:00+2n2688100 0.0 1020242
09:00+5n46585 0.0 10201127
12:00+7n5842100 0.0 10202336
15:00+6nnw594693 0.1 10202111
18:00+4nnw5963100 0.3 10211024
21:00+2nnw5108598 1.0 1023844